CAPE
0 0 0 0 0 0 0 0 0 0 0 0 0 0 8 3 9 4 3 0 0 0 0 4 3 1 2 2 3 2 2 1 0 3 0 2 1 1 1 1 1 1 3 2
0 0 0 0 0 0 0 0 0 0 0 0 1 6 1 3 3 3 4 2 4 4 4 4 6 3 2 3 3 0 1 1 0 1 3 4 2 2 1 0 0 1 0 0
0 0 0 0 0 0 0 0 0 0 0 1 0 2 2 3 5 6 6 3 6 2 6 5 4 5 4 2 3 1 2 1 0 0 1 1 3 2 1 1 0 0 0 0
0 0 0 4 0 0 0 0 1 1 3 0 1 4 4 4 5 8 5 6 5 5 3 4 4 4 5 1 2 2 3 2 1 1 0 0 1 2 2 0 0 0 0 0
0 0 0 0 6 3 2 0 1 1 3 0 0 2 3 4 4 6 4 4 4 3 2 3 5 4 4 1 5 2 2 0 3 0 0 1 0 0 0 1 0 0 0 0
0 0 0 1 1 0 0 0 0 0 2 2 0 0 1 3 2 4 3 3 4 3 4 3 5 3 6 9 6 4 6 6 4 4 3 0 0 0 0 1 0 0 0 0
0 0 0 0 0 0 0 0 1 0 0 1 0 2 3 2 2 3 3 3 3 3 5 5 1 1 4 6 10 6 6 5 7 8 7 4 3 3 0 0 0 0 5 7
1 0 0 0 0 0 0 1 1 0 2 4 4 3 4 4 3 3 2 2 2 4 5 3 1 2 3 5 4 4 7 5 8 7 6 6 4 4 6 4 4 7 6 9
0 0 2 2 1 0 0 0 0 0 2 0 0 3 4 5 3 1 2 3 2 4 5 3 1 3 3 3 2 3 5 5 7 7 7 7 6 5 4 3 4 5 4 5
0 0 2 3 3 0 0 0 0 0 1 0 1 2 4 4 3 2 1 1 2 4 5 4 1 2 3 2 1 2 6 6 5 5 6 6 5 6 7 7 6 7 8 9
0 0 1 1 2 3 3 1 0 0 0 1 1 5 1 3 2 3 1 1 1 2 4 5 3 3 2 2 1 2 4 3 4 3 3 3 3 3 3 2 3 6 4 4
0 0 1 1 1 2 0 0 0 0 0 0 1 3 1 2 2 1 1 2 1 2 3 5 5 5 3 1 2 3 5 4 2 1 0 1 1 2 2 2 2 2 1 0
0 1 0 1 1 1 1 0 0 0 0 0 0 1 2 3 2 2 1 1 2 1 2 1 2 3 4 2 3 3 3 4 3 2 3 2 1 2 3 0 2 2 2 2
1 0 0 0 1 1 0 0 0 0 0 0 0 0 0 0 0 1 2 2 1 1 1 2 2 2 1 2 0 1 3 3 4 4 3 3 2 3 2 2 1 1 0 0
1 2 1 0 0 0 0 0 0 0 1 2 0 1 0 0 0 2 2 0 0 0 0 0 2 3 1 1 1 1 2 4 3 3 2 2 2 2 2 2 2 3 1 0
0 0 0 0 0 0 0 0 0 2 1 1 1 1 1 0 1 1 2 0 0 0 1 0 0 2 2 1 1 1 1 3 2 2 2 2 2 2 2 2 2 2 1 2
1 0 0 1 1 0 1 1 0 1 1 1 1 0 0 0 0 0 1 1 0 0 2 1 0 0 0 1 1 3 2 1 1 2 2 2 2 2 2 0 0 0 0 0
0 1 0 0 0 0 1 1 0 0 0 1 0 0 0 0 0 0 0 0 0 0 0 0 0 0 0 0 1 1 1 2 2 2 2 2 3 1 1 0 0 0 0 0
0 0 0 1 1 1 0 0 0 0 0 0 0 0 0 0 0 0 0 0 0 0 0 0 1 0 0 0 1 1 1 1 2 2 1 0 0 0 0 0 0 0 0 0
0 0 0 0 0 0 0 0 0 0 0 0 0 0 0 0 0 0 0 0 0 1 0 0 0 0 0 0 0 1 1 1 0 0 0 0 0 0 0 0 0 0 0 0
0 0 0 0 0 0 0 0 0 0 0 0 0 0 0 0 0 0 0 0 1 0 0 0 0 0 0 0 0 0 0 0 0 0 0 0 0 0 0 0 0 0 0 0
0 0 0 0 0 0 0 0 0 0 0 0 0 0 0 0 0 0 0 1 0 0 0 0 0 0 0 0 0 0 0 0 0 0 0 0 0 0 0 0 0 0 0 0
0 0 0 0 0 0 0 0 0 0 0 0 0 0 0 0 0 0 0 0 0 0 0 0 0 0 0 0 0 0 0 0 0 0 0 0 0 0 0 0 0 0 0 0
0 0 0 0 0 0 0 0 0 0 0 0 0 0 0 0 0 0 0 0 0 0 0 0 0 0 0 0 0 0 0 0 0 0 0 0 0 0 0 0 0 0 0 0
0 0 0 0 0 0 0 0 0 0 0 0 0 0 0 0 0 0 0 0 0 0 0 0 0 0 0 0 0 0 0 0 0 0 0 0 0 0 0 0 0 0 0 0
0 0 0 0 0 0 0 0 0 0 0 0 0 0 0 0 0 0 0 0 0 0 0 0 0 0 0 0 0 0 0 0 0 0 0 0 0 0 0 0 0 0 0 0
0 0 0 0 0 0 0 0 0 0 0 0 0 0 0 0 0 0 0 0 0 0 0 0 0 0 0 0 0 0 0 0 0 0 0 0 0 0 0 0 0 0 0 0
CIN
0 0 0 0 0 0 0 0 0 0 0 0 0 0 -75 0 -41 0 0 0 0 0 0 0 0 0 0 0 0 0 0 0 0 0 0 0 0 0 0 0 0 0 0 0
0 0 0 0 0 0 0 0 0 0 0 0 -19 -35 0 0 0 0 0 0 0 0 0 0 0 0 0 0 0 0 0 0 0 0 0 0 0 0 0 0 0 0 0 0
-3 0 0 0 0 0 0 0 0 0 0 0 0 0 0 0 0 0 0 0 0 0 0 0 0 0 0 0 0 0 0 0 0 0 0 0 0 0 0 0 0 0 0 0
0 0 0 -4 0 0 0 0 -3 -1 -1 0 0 0 0 0 0 0 0 0 0 0 0 0 0 0 0 0 0 0 0 0 0 0 0 0 0 0 0 0 0 0 0 0
0 0 0 0 -3 -1 -19 0 0 0 -1 0 0 0 0 0 0 0 0 0 0 0 0 0 0 0 0 0 0 0 0 0 0 0 0 0 0 0 0 0 0 0 0 0
0 0 0 -2 -1 0 -1 0 0 0 0 0 0 0 0 0 0 0 0 0 0 0 0 0 0 0 0 0 0 0 0 0 0 0 0 0 0 0 0 0 0 0 0 0
-1 0 0 0 0 0 -2 0 0 0 0 0 0 0 0 0 0 0 0 0 0 0 0 0 0 0 0 0 0 0 0 0 0 0 0 0 0 0 0 0 0 0 0 0
-1 0 0 0 0 0 0 0 0 0 0 0 0 0 0 0 0 0 0 0 0 0 0 0 0 0 0 0 0 0 0 0 0 0 0 0 0 0 0 0 0 0 0 0
0 0 0 0 0 0 0 0 0 0 0 0 0 0 0 0 0 0 0 0 0 0 0 0 0 0 0 0 0 0 0 0 0 0 0 0 0 0 0 0 0 0 0 0
-1 0 0 0 0 0 0 0 0 0 0 0 0 0 0 0 0 0 0 0 0 0 0 0 0 0 0 0 0 0 0 0 0 0 0 0 0 0 0 0 0 0 0 0
0 0 0 0 0 0 0 0 0 0 0 0 0 0 0 0 0 0 0 0 0 0 0 0 0 0 0 0 0 0 0 0 0 0 0 0 0 0 0 0 0 0 0 0
0 0 0 0 0 0 0 0 0 0 0 0 0 0 0 0 0 0 0 0 0 0 0 0 0 0 0 0 0 0 0 0 0 0 0 0 0 0 0 0 0 0 0 0
0 0 0 0 0 0 0 0 0 0 0 0 0 0 0 0 0 0 0 0 0 0 0 0 0 0 0 0 0 0 0 0 0 0 0 0 0 0 0 0 0 0 0 0
0 0 0 0 0 0 0 0 0 0 0 0 0 0 0 0 0 0 0 0 0 0 0 0 0 0 0 0 0 0 0 0 0 0 0 0 0 0 0 0 0 0 0 0
0 0 0 0 0 0 0 0 0 0 0 0 0 0 0 0 0 0 0 0 0 0 0 0 0 0 0 0 0 0 0 0 0 0 0 0 0 0 0 0 0 0 0 0
0 0 0 0 0 0 0 0 0 0 0 0 0 0 0 0 0 0 0 0 0 0 0 0 0 0 0 0 0 0 0 0 0 0 0 0 0 0 0 0 0 0 0 0
0 0 0 0 0 0 0 0 0 0 0 0 0 0 0 0 0 0 0 0 0 0 0 0 0 0 0 0 0 0 0 0 0 0 0 0 0 0 0 0 0 0 0 0
0 0 0 0 0 0 0 0 0 0 0 0 0 0 0 0 0 0 0 0 0 0 0 0 0 0 0 0 0 0 0 0 0 0 0 0 0 0 0 0 0 0 0 0
0 0 0 0 0 0 0 0 0 0 0 0 0 0 0 0 0 0 0 0 0 0 0 0 0 0 0 0 0 0 0 0 0 0 0 0 0 0 0 0 0 0 0 0
0 0 0 0 0 0 0 0 0 0 0 0 0 0 0 0 0 0 0 0 0 0 0 0 0 0 0 0 0 0 0 0 0 0 0 0 0 0 0 0 0 0 0 0
0 0 0 0 0 0 0 0 0 0 0 0 0 0 0 0 0 0 0 0 0 0 0 0 0 0 0 0 0 0 0 0 0 0 0 0 0 0 0 0 0 0 0 0
0 0 0 0 0 0 0 0 0 0 0 0 0 0 0 0 0 0 0 0 0 0 0 0 0 0 0 0 0 0 0 0 0 0 0 0 0 0 0 0 0 0 0 0
0 0 0 0 0 0 0 0 0 0 0 0 0 0 0 0 0 0 0 0 0 0 0 0 0 0 0 0 0 0 0 0 0 0 0 0 0 0 0 0 0 0 0 0
0 0 0 0 0 0 0 0 0 0 0 0 0 0 0 0 0 0 0 0 0 0 0 0 0 0 0 0 0 0 0 0 0 0 0 0 0 0 0 0 0 0 0 0
0 0 0 0 0 0 0 0 0 0 0 0 0 0 0 0 0 0 0 0 0 0 0 0 0 0 0 0 0 0 0 0 0 0 0 0 0 0 0 0 0 0 0 0
0 0 0 0 0 0 0 0 0 0 0 0 0 0 0 0 0 0 0 0 0 0 0 0 0 0 0 0 0 0 0 0 0 0 0 0 0 0 0 0 0 0 0 0
0 0 0 0 0 0 0 0 0 0 0 0 0 0 0 0 0 0 0 0 0 0 0 0 0 0 0 0 0 0 0 0 0 0 0 0 0 0 0 0 0 0 0 0
Wind_Speed
26 24 23 24 22 21 22 22 25 24 26 26 26 28 29 30 29 30 33 33 28 32 30 25 17 18 19 19 20 17 14 13 13 13 11 8 5 2 2 5 9 7 5 5
24 24 25 26 24 24 26 26 27 28 27 24 25 25 27 28 28 30 32 31 28 25 15 17 17 18 21 16 17 13 12 12 11 11 13 11 9 7 4 2 3 5 6 5
22 21 26 26 24 21 20 20 22 24 22 24 24 24 25 25 26 28 29 29 26 28 23 17 14 16 17 18 11 11 11 12 11 11 14 13 12 10 8 5 4 4 3 2
22 23 25 22 20 14 14 17 18 19 21 23 22 17 20 23 25 28 28 27 24 24 22 17 14 12 12 10 8 8 8 9 9 10 11 11 10 12 11 8 7 6 6 5
18 20 20 16 15 14 16 17 17 19 20 21 18 14 22 25 26 27 26 26 23 19 17 15 13 10 10 4 5 7 10 15 18 14 16 14 8 8 9 8 9 11 10 9
17 19 17 14 16 16 14 18 15 17 19 18 18 20 22 24 25 25 24 24 24 18 17 15 13 10 9 5 6 9 11 13 14 13 14 21 24 23 13 13 13 13 15 18
21 20 21 17 20 17 18 16 15 15 17 18 18 18 20 23 25 25 24 22 21 18 13 11 11 10 8 10 11 12 13 14 15 16 17 19 21 22 23 18 15 14 15 17
21 22 23 20 18 17 13 13 14 16 17 17 18 19 21 21 22 24 23 22 20 18 17 15 13 14 12 11 14 14 15 16 17 18 19 20 20 21 19 16 13 14 14 17
21 19 17 16 12 12 11 12 15 16 17 17 18 19 20 20 20 21 20 19 18 18 17 18 17 15 14 15 15 15 16 17 18 19 20 20 20 19 17 15 13 13 14 15
22 16 14 12 11 11 12 13 15 16 17 17 17 18 19 19 19 18 18 16 16 16 16 16 19 17 17 17 17 17 17 18 19 19 19 19 18 18 16 14 13 12 13 14
16 12 11 11 12 12 13 14 15 16 17 18 17 17 18 19 18 18 18 17 17 16 16 15 16 19 19 18 18 18 18 18 19 19 20 21 21 19 16 16 14 12 13 13
16 17 9 10 11 12 13 13 15 16 17 18 18 18 18 18 18 18 18 18 19 19 19 18 19 19 19 19 18 18 18 18 18 19 19 20 19 20 23 21 20 18 16 14
15 12 7 8 10 12 12 14 15 16 17 18 19 18 18 18 19 19 19 19 20 20 20 20 21 21 22 21 19 19 18 18 17 17 17 17 17 17 18 21 23 22 20 19
13 11 11 11 12 13 14 14 15 17 17 18 19 19 19 19 19 19 20 20 19 20 20 21 21 21 20 19 18 18 18 18 17 17 17 16 16 16 16 16 17 18 20 19
16 14 12 12 14 16 16 17 17 18 19 19 20 19 19 19 19 20 20 19 19 19 20 21 21 21 20 19 18 17 17 16 16 16 16 16 16 16 15 15 16 15 16 17
17 16 15 16 17 18 19 19 19 19 20 19 19 19 19 18 18 19 19 20 19 20 21 21 20 21 19 18 17 16 16 16 15 15 14 15 15 14 15 15 15 16 16 17
17 19 19 19 20 20 21 20 20 19 19 19 19 18 17 18 18 19 19 19 19 19 20 21 20 20 19 18 17 16 15 15 15 14 14 15 15 15 15 15 15 16 17 17
17 18 18 20 21 21 21 21 20 19 18 18 17 17 17 17 17 18 18 18 19 20 21 21 21 20 19 18 17 16 15 15 15 15 15 15 15 15 15 15 15 15 16 16
19 20 20 20 20 19 19 19 19 18 17 16 16 16 16 17 17 18 18 19 20 20 22 22 20 20 19 18 17 16 15 14 15 15 15 15 15 15 15 15 15 15 15 15
18 18 19 19 19 18 18 18 17 16 17 16 15 16 16 17 18 18 18 19 20 20 21 21 20 19 19 18 17 16 15 15 15 15 15 14 15 15 15 14 14 14 15 15
18 18 18 17 17 18 17 17 16 16 17 17 16 16 17 18 19 19 19 19 22 21 20 20 20 19 19 18 17 16 15 15 15 14 14 14 14 14 14 14 14 14 14 14
18 17 16 16 16 16 17 17 16 16 17 17 17 17 17 18 18 19 20 20 21 21 20 20 20 19 18 17 17 16 16 15 15 14 14 14 14 14 14 14 14 14 15 15
16 16 15 16 16 16 17 17 17 17 17 18 18 18 18 19 19 19 20 21 20 20 19 19 19 18 17 17 16 16 15 15 15 15 14 14 14 14 14 14 14 14 15 16
15 15 15 15 15 17 17 17 17 17 17 18 18 18 17 17 18 18 18 18 19 18 18 18 18 18 17 16 16 16 15 15 15 15 15 15 15 15 15 15 15 15 16 17
15 16 16 16 17 18 17 17 18 18 18 18 18 18 18 18 17 17 17 18 18 18 18 18 18 17 17 17 16 16 16 16 16 16 16 16 16 16 16 16 16 16 17 18
17 17 17 18 18 18 18 19 19 19 19 19 18 18 18 18 17 17 17 17 17 17 18 18 18 17 17 17 17 17 16 16 16 17 16 16 16 16 16 17 17 18 18 19
18 18 19 19 19 19 20 20 21 20 19 19 18 18 18 18 17 17 17 17 17 18 18 18 18 18 18 18 18 18 17 17 18 17 17 17 17 17 18 18 19 20 20 21
Wind_Direction
273 276 280 281 280 281 283 287 287 295 298 305 313 316 320 321 320 321 320 312 306 317 300 279 273 260 242 234 229 229 231 239 251 256 261 268 267 243 175 142 138 125 107 111
278 275 276 278 281 279 281 287 290 291 296 311 315 321 320 322 319 316 311 304 304 308 271 284 272 255 239 236 232 232 238 247 257 262 262 267 271 273 266 221 169 145 142 136
282 283 280 276 279 281 289 298 298 293 298 309 314 316 316 317 318 316 313 307 296 308 322 301 275 260 248 244 234 237 248 252 258 265 266 268 274 279 278 271 257 243 207 186
284 287 275 287 292 293 298 305 305 301 302 311 298 317 324 323 316 315 307 298 290 304 302 308 295 277 267 252 244 246 256 267 276 271 275 279 281 278 284 286 279 275 273 267
288 285 290 287 291 288 291 299 305 299 308 311 306 317 316 320 316 315 312 306 295 291 293 292 300 305 280 272 274 289 278 291 273 280 281 282 286 289 292 294 295 289 289 282
292 286 283 280 267 288 299 291 317 314 317 320 317 296 309 323 321 321 318 318 316 294 305 322 329 308 307 290 326 304 302 297 300 313 299 283 282 282 285 288 289 296 298 298
266 269 252 270 269 285 282 297 317 316 321 324 323 326 333 326 328 330 329 324 325 321 309 310 306 292 321 342 339 319 315 323 323 319 307 293 289 289 285 290 296 299 301 307
252 255 253 273 270 281 309 329 338 339 333 332 330 331 334 330 327 334 337 331 333 335 340 338 328 333 337 324 326 323 327 326 323 322 319 314 307 306 307 302 302 303 303 307
263 270 289 312 319 309 320 336 332 338 335 335 334 334 334 336 332 333 337 338 331 336 338 352 349 340 339 335 336 340 338 336 332 330 329 326 323 321 317 317 314 312 311 312
270 287 297 322 341 344 350 354 2 352 339 337 336 337 343 333 327 328 330 327 330 331 336 338 353 346 342 344 349 356 358 355 354 352 348 346 345 342 337 334 327 326 320 316
293 298 306 316 327 349 358 1 2 358 350 345 341 339 339 337 329 324 325 326 330 331 334 333 335 345 343 344 352 358 1 2 4 6 8 12 9 1 359 353 344 343 337 334
287 278 315 328 342 344 356 352 356 352 343 340 340 340 341 337 332 328 324 324 332 336 335 336 340 341 343 348 352 2 357 0 1 8 12 16 21 23 25 29 29 25 21 20
290 328 332 322 314 332 323 342 350 352 347 342 338 342 341 343 343 341 339 334 331 328 331 337 341 343 348 353 355 5 6 8 3 1 1 7 12 18 25 30 34 36 36 35
309 327 310 305 311 314 337 341 338 340 334 331 332 334 337 336 335 336 336 333 334 338 339 339 343 343 339 345 351 357 4 9 7 5 10 15 20 21 24 27 28 25 25 31
308 309 308 312 312 319 326 331 333 329 328 330 334 336 340 341 340 335 335 335 338 340 338 341 343 343 339 344 352 357 360 359 6 8 11 14 18 22 23 23 24 20 15 12
296 306 305 305 307 312 319 324 325 326 331 332 336 338 338 342 345 343 342 341 342 339 338 338 339 337 337 343 346 350 353 356 1 4 6 9 10 10 9 7 4 1 360 357
300 295 303 307 309 313 318 323 328 332 333 336 335 337 342 343 343 343 341 342 346 346 342 339 337 338 340 342 344 348 350 354 1 5 3 2 1 2 3 2 1 360 359 359
319 323 328 321 317 318 322 325 328 332 334 337 343 344 345 345 342 341 344 344 343 343 341 338 339 340 342 343 347 350 354 355 356 357 357 358 359 359 360 1 1 1 1 2
319 318 322 324 325 331 334 335 336 335 335 339 339 341 341 340 343 343 341 340 337 335 332 334 338 340 341 341 345 349 351 353 354 354 356 357 358 358 359 359 359 360 359 358
326 330 326 326 334 341 342 338 340 343 334 335 339 339 339 337 335 337 339 339 336 332 332 334 337 338 339 341 343 345 346 349 350 350 352 353 355 356 359 360 360 359 357 355
330 332 334 334 335 341 338 339 339 337 335 336 335 334 333 334 334 331 331 330 328 330 333 335 336 335 336 339 343 343 345 346 347 348 349 352 354 356 357 356 354 350 351 353
330 334 335 337 337 338 337 338 341 343 342 340 338 338 337 334 335 339 340 333 331 333 335 335 335 337 339 341 342 343 346 348 348 350 351 352 352 352 352 352 350 348 347 347
347 342 344 342 341 343 344 344 345 346 346 345 341 339 337 335 333 330 329 334 338 339 340 340 342 343 344 346 346 348 349 349 350 350 351 351 350 350 348 347 346 345 344 343
350 348 345 352 349 341 340 344 349 350 351 350 348 347 345 342 343 343 344 342 343 344 344 344 346 348 348 348 348 348 348 348 347 347 348 347 346 344 343 343 342 342 343 342
352 349 348 346 343 341 343 345 344 343 342 342 342 343 345 344 343 344 344 345 344 344 344 345 345 346 346 347 346 346 345 344 342 342 340 340 340 339 339 340 340 339 338 338
345 341 339 338 338 336 335 335 334 334 334 335 337 340 342 342 343 343 343 344 344 344 344 343 342 343 343 343 342 342 342 341 341 340 340 340 340 338 338 337 335 334 334 333
340 337 333 332 332 331 331 330 330 329 330 330 331 334 336 338 339 339 340 340 340 341 340 340 340 340 340 339 338 338 338 338 337 336 336 337 336 335 334 333 332 332 331 330